IRIDIUM 33 DEB, 35848

Orbit data source: Space-Track

IRIDIUM 33 DEB, 35848 is space debris in LEO originally from a launch on Sun, 14 Sep 1997 UTC launched from the Tyuratam Missile And Space Complex (TTMTR). The debris from Iridium 33, an American commercial communications satellite, has been tracked extensively since its accidental collision with the defunct Russian satellite Cosmos 2251 in 2009. This event, occurring at high speed in low Earth orbit (LEO), generated thousands of pieces of space debris, significantly increasing the risk of further collisions. The Iridium 33 debris cloud has impacted space traffic management and orbital debris mitigation strategies, making it a subject of ongoing study in space situational awareness.

Loading next visibility...
Identifier
35848, 1997-051SY
Orbit
LEO
Country
Flag of USUS
Related business
Manufacturer
Unknown
Mission
Spacecraft
Bus & Motor
Unknown
Mass
Unknown
Launch date (UTC)
1997-09-14 (29 years ago)
Launch vehicle
Unknown
Launch site
Tyuratam Missile And Space Complex (TTMTR)
Object type
Payload
Rocket body
Debris
Shape & HBR
Unknown shape, 0.1 m
Radar Cross Section
Small (<0.1 m²)

Expand to show TLE details & history
Last TLE update: 6 hours ago

TLE from 6 hours ago
0 IRIDIUM 33 DEB
1 35848U 97051SY  26263.20805038  .00006089  00000-0  71683-3 0  9996
2 35848  86.3841 248.7849 0004640 319.3140  40.7736 14.84666010708599
Epoch: 2026-09-20T04:59Z
TLE epoch observation values (Epoch: 2026-09-20T04:59:35.552Z)
Latitude
-0.0001°
Longitude
174.78123°
Altitude
615.299 km
Speed
7.553 km/s
True Right ascension
16h 35m 08s
True Declination
0° 00' 00"
Sunlit
Object was in daylight at epoch
Visualization orbit readout
Latitude
Unknown
Longitude
Unknown
Altitude
Unknown
Speed
Unknown
Apparent Right ascension
Unknown
Apparent Declination
Unknown
Sunlit
N/A
Visualization observer readout
Local Sidereal Time
03:48:17
Azimuth
Unknown
Elevation
Unknown
Doppler factor
Unknown
Orbital elements
Apogee altitude
614.771 km
Perigee altitude
608.285 km
Semi-major axis
6,989.665 km
Eccentricity
0.00046
Inclination
86.3841°
RAAN
248.7849°
Arg. of periapsis
319.314°
True anomaly
40.80834°
Mean anomaly
40.7736°
Eccentric anomaly
40.79097°
Mean motion
3.71414 °/min
Orbital period
96.93 mins
BSTAR
0.00071683
Loading maneuver chart data...
Computing Atmospheric mass density...

Documentation

Showing up to 5 results
|